NILESAT 301

Last updated on Sun Dec 07 2025 00:02:50 GMT+0000 (Coordinated Universal Time)

1 52817U 22061A 25340.35395593 -.00000050 00000+0 00000+0 0 9994 2 52817 0.0516 23.3702 0004015 254.3366 278.1093 1.00271372 12807
UTC large
Height (km)
Speed (km/s)
/
Latitude / Longitude
Inclination (degrees)
Orbital Period (minutes)
Azimuth
Elevation
Range (km)
Doppler Factor

Next 0 passes for location: London (51.5072 / 0.1276)

Sorry there are no passes over London.